Overview Statistics Trail Chart Weather Telemetry Raw packets
 

This is the latest recevied weather packets stored in our database for station/object 4S6DRJ-13. If no packets are shown the sender has not sent any weather packets the latest 10 day(s).

<< 132 133 134 135 136 137 138 >>
Time Temp. Humidity Pressure Rain* Wind** Luminosity Snow
1788261133 30.56° C 72% 1007.8 hPa 0 mm 1.79 m/s, 325° 193 W/m² -
1788261072 30.56° C 73% 1007.7 hPa 0 mm 2.24 m/s, 237° 355 W/m² -
1788261011 30.56° C 74% 1007.8 hPa 0 mm 0.89 m/s, 249° 388 W/m² -
1788260950 30° C 73% 1007.8 hPa 0 mm 1.79 m/s, 79° 326 W/m² -
1788260889 30° C 74% 1007.8 hPa 0 mm 1.79 m/s, 211° 385 W/m² -
1788260828 30° C 74% 1007.7 hPa 0 mm 2.24 m/s, 123° 404 W/m² -
1788260767 30° C 74% 1007.8 hPa 0 mm 2.24 m/s, 258° 384 W/m² -
1788260707 30° C 74% 1007.6 hPa 0 mm 1.79 m/s, 214° 250 W/m² -
1788260645 30° C 74% 1007.8 hPa 0 mm 1.79 m/s, 255° 289 W/m² -
1788260584 30° C 74% 1007.9 hPa 0 mm 2.68 m/s, 225° 217 W/m² -
1788260523 30° C 74% 1007.8 hPa 0 mm 0.89 m/s, 177° 186 W/m² -
1788260466 30° C 73% 1007.9 hPa 0 mm 0.45 m/s, 234° 201 W/m² -
1788260402 30° C 73% 1007.8 hPa 0 mm 1.79 m/s, 172° 200 W/m² -
1788260340 30° C 73% 1007.9 hPa 0 mm 1.34 m/s, 247° 196 W/m² -
1788260279 30° C 73% 1007.9 hPa 0 mm 2.68 m/s, 311° 209 W/m² -
1788260218 30° C 73% 1007.7 hPa 0 mm 2.24 m/s, 305° 243 W/m² -
1788260157 30.56° C 73% 1007.9 hPa 0 mm 1.34 m/s, 236° 229 W/m² -
1788260096 30.56° C 72% 1007.9 hPa 0 mm 2.68 m/s, 266° 211 W/m² -
1788260035 30.56° C 72% 1007.9 hPa 0 mm 3.13 m/s, 237° 192 W/m² -
1788259974 30.56° C 73% 1008 hPa 0 mm 0.89 m/s, 291° 209 W/m² -
1788259913 30.56° C 73% 1007.9 hPa 0 mm 0.89 m/s, 155° 214 W/m² -
1788259852 30.56° C 72% 1007.9 hPa 0 mm 1.34 m/s, 256° 242 W/m² -
1788259791 30.56° C 72% 1007.7 hPa 0 mm 1.79 m/s, 225° 440 W/m² -
1788259730 30.56° C 71% 1007.8 hPa 0 mm 2.24 m/s, 209° 197 W/m² -
1788259670 30.56° C 72% 1007.9 hPa 0 mm 2.68 m/s, 257° 227 W/m² -

* Rain latest hour (hover to see other rain measurements)
** Current wind speed in m/s (hover to see current wind gust speed)